#datint,netname,site,siteID,timestamp,IntT,BattV,AirT2,AirT,AirT_Avg,AirT_Max,AirT_Min,RH_Avg,RH_Max,RH_Min,EA_Avg,Td_Avg,Td_Max,Td_Min,WindS_Smp,WindS_Avg,WindD_Avg,WindD_SD,WindS_Max,ETo,ETr,SoilT4,SoilT8,SoilVWC8,SolarW_Avg,wetstate_Avg,wetT_Avg,Precip_accum,Precip_WPG,Precip_TB
15min,AgWx,beryljct,423,19JAN2020:00:00:00,24.4,12.8,25.3,26.3,26.8,27.7,25.2,59,62,57,0.296,14.5,14.9,13.6,2.148,2.1,325,9.6,3.5,-0.00006,-0.00006,31.7,33.2,19,0,.,.,8.53,0.00,0.00
15min,AgWx,beryljct,423,19JAN2020:00:15:00,24.0,12.8,22.8,22.9,24.3,26.2,22.9,65,69,61,0.291,14.3,14.8,13.5,3.595,2.5,312,5.4,3.6,-0.00005,-0.00005,31.7,33.2,18,0,.,.,8.54,0.00,0.00
15min,AgWx,beryljct,423,19JAN2020:00:30:00,23.3,12.79,21.4,21.6,21.9,22.9,21.1,72,74,69,0.293,14.4,15.0,13.7,2.674,3.0,318,8.3,3.9,-0.00004,-0.00004,31.7,33.3,19,0,.,.,8.54,0.00,0.00
15min,AgWx,beryljct,423,19JAN2020:00:45:00,22.6,12.79,24.0,23.1,22.5,24.0,21.5,71,74,66,0.282,14.5,15.0,13.6,0.395,2.6,327,10,3.4,-0.00005,-0.00006,31.7,33.2,18,0,.,.,8.54,0.00,0.00
15min,AgWx,beryljct,423,19JAN2020:01:00:00,22.1,12.76,25.2,24.8,23.8,24.8,22.2,66,70,64,0.290,14.1,14.8,13.6,2.674,1.8,296,21,3.7,-0.00008,-0.00010,31.7,33.2,19,0,.,.,8.54,0.00,0.00
15min,AgWx,beryljct,423,19JAN2020:01:15:00,22.2,12.76,25.5,24.0,24.4,25.5,23.4,64,66,62,0.290,14.0,14.6,13.4,1.863,2.3,306,25,4.0,-0.00005,-0.00006,31.7,33.3,18,0,.,.,8.54,0.00,0.00
15min,AgWx,beryljct,423,19JAN2020:01:30:00,22.4,12.75,24.9,24.5,24.4,25.0,23.5,64,66,62,0.280,13.9,14.5,13.5,4.165,3.2,342,24,6.3,-0.00002,-0.00001,31.7,33.3,19,0,.,.,8.53,0.00,0.00
15min,AgWx,beryljct,423,19JAN2020:01:45:00,22.6,12.75,20.3,20.4,23.2,24.7,20.4,66,74,62,0.279,13.6,14.2,12.9,1.206,3.1,346,11,4.5,-0.00002,-0.00002,31.8,33.2,19,0,.,.,8.54,0.00,0.00
15min,AgWx,beryljct,423,19JAN2020:02:00:00,22.2,12.74,21.0,21.2,20.9,21.8,20.2,74,75,72,0.284,13.8,14.1,13.5,3.508,1.7,316,4.1,3.5,-0.00009,-0.00011,31.8,33.2,18,0,.,.,8.54,0.00,0.00
15min,AgWx,beryljct,423,19JAN2020:02:15:00,21.7,12.73,21.9,20.9,21.4,22.7,20.2,74,77,71,0.297,14.3,14.8,13.7,0.46,1.7,322,4.5,4.0,-0.00009,-0.00011,31.8,33.3,18,0,.,.,8.54,0.00,0.00
15min,AgWx,beryljct,423,19JAN2020:02:30:00,21.0,12.71,21.1,20.9,21.2,22.1,20.5,75,77,73,0.285,14.5,15.2,13.4,0.943,0.8,16,47,2.8,-0.00014,-0.00019,31.7,33.3,18,0,.,.,8.54,0.00,0.00
15min,AgWx,beryljct,423,19JAN2020:02:45:00,20.4,12.71,20.7,20.1,20.1,20.9,19.2,75,77,74,0.286,13.6,13.9,12.5,0,0.3,57,0.1,1.8,-0.00016,-0.00025,31.7,33.3,19,0,.,.,8.54,0.00,0.00
15min,AgWx,beryljct,423,19JAN2020:03:00:00,19.9,12.7,18.6,18.8,19.5,20.6,18.4,78,81,75,0.287,13.8,14.3,12.7,2.718,2.0,125,32,5.1,-0.00008,-0.00010,31.7,33.3,18,0,.,.,8.54,0.01,0.00
15min,AgWx,beryljct,423,19JAN2020:03:15:00,19.5,12.7,17.8,17.5,17.6,18.7,17.1,83,84,81,0.281,13.3,13.9,12.9,3.003,3.1,177,9.9,4.1,-0.00006,-0.00006,31.7,33.3,18,0,.,.,8.54,0.00,0.00
15min,AgWx,beryljct,423,19JAN2020:03:30:00,19.2,12.69,20.3,19.8,18.5,19.8,17.4,84,85,82,0.301,14.4,15.2,13.5,3.617,3.0,196,7.2,4.0,-0.00006,-0.00007,31.7,33.2,18,0,.,.,8.54,0.00,0.00
15min,AgWx,beryljct,423,19JAN2020:03:45:00,19.2,12.68,19.9,19.7,19.6,20.3,18.9,81,83,79,0.288,14.7,15.2,14.1,3.135,1.8,182,20,3.6,-0.00009,-0.00012,31.7,33.2,19,0,.,.,8.54,0.00,0.00
15min,AgWx,beryljct,423,19JAN2020:04:00:00,19.3,12.68,19.9,20.6,19.9,20.7,19.5,80,81,79,0.300,14.7,15.4,14.1,2.039,1.6,164,22,3.3,-0.00010,-0.00013,31.7,33.2,18,0,.,.,8.54,0.00,0.00
15min,AgWx,beryljct,423,19JAN2020:04:15:00,19.6,12.66,20.0,19.8,20.4,21.5,19.8,80,82,77,0.296,15.1,16.1,14.6,1.403,1.2,190,16,2.0,-0.00011,-0.00015,31.7,33.3,18,0,.,.,8.54,0.00,0.00
15min,AgWx,beryljct,423,19JAN2020:04:30:00,19.6,12.66,18.5,18.7,19.0,19.9,18.1,83,86,81,0.299,14.7,15.2,14.3,2.981,2.4,156,22,3.4,-0.00008,-0.00009,31.7,33.3,18,0,.,.,8.54,0.00,0.00
15min,AgWx,beryljct,423,19JAN2020:04:45:00,19.3,12.66,21.2,20.6,19.5,20.9,18.0,82,86,78,0.297,15.0,15.8,14.2,1.447,2.4,180,4.3,3.2,-0.00008,-0.00009,31.7,33.3,18,0,.,.,8.54,0.00,0.00
15min,AgWx,beryljct,423,19JAN2020:05:00:00,19.1,12.66,22.0,21.5,20.6,21.5,19.9,78,79,75,0.298,14.7,15.1,14.3,0.68,0.9,176,1.7,1.8,-0.00013,-0.00017,31.7,33.3,18,0,.,.,8.54,0.00,0.00
15min,AgWx,beryljct,423,19JAN2020:05:15:00,19.1,12.65,17.4,18.0,20.6,22.3,18.0,75,82,71,0.278,13.9,15.0,12.3,1.885,1.6,143,20,2.7,-0.00010,-0.00012,31.7,33.3,18,0,.,.,8.55,0.01,0.00
15min,AgWx,beryljct,423,19JAN2020:05:30:00,18.9,12.64,18.3,17.6,18.4,19.0,17.4,83,84,82,0.281,13.9,14.6,13.0,1.644,2.5,164,12,3.8,-0.00007,-0.00008,31.7,33.2,18,0,.,.,8.54,0.00,0.00
15min,AgWx,beryljct,423,19JAN2020:05:45:00,18.6,12.65,19.3,18.6,18.1,19.7,17.2,83,85,79,0.282,13.8,15.0,12.9,1.535,1.4,170,21,2.5,-0.00010,-0.00014,31.6,33.3,18,0,.,.,8.54,0.00,0.00
15min,AgWx,beryljct,423,19JAN2020:06:00:00,18.7,12.64,25.2,23.7,19.9,23.7,18.0,79,82,70,0.302,14.5,16.4,13.1,0,1.0,232,52,3.3,-0.00012,-0.00017,31.6,33.3,19,0,.,.,8.54,0.00,0.00
15min,AgWx,beryljct,423,19JAN2020:06:15:00,19.5,12.64,23.2,23.2,23.6,24.2,23.2,68,70,67,0.296,14.7,15.2,14.2,2.17,1.2,341,13,2.2,-0.00011,-0.00015,31.6,33.3,18,0,.,.,8.54,0.00,0.00
15min,AgWx,beryljct,423,19JAN2020:06:30:00,20.2,12.64,22.6,23.4,22.9,24.5,22.0,72,76,67,0.297,15.1,16.1,14.7,0.548,0.7,342,0.1,2.1,-0.00015,-0.00021,31.6,33.3,19,0,.,.,8.54,0.00,0.00
15min,AgWx,beryljct,423,19JAN2020:06:45:00,20.8,12.62,22.1,21.9,22.6,23.4,21.8,74,78,70,0.314,15.6,16.1,14.9,0,0.8,342,0.0,2.0,-0.00014,-0.00020,31.6,33.3,18,0,.,.,8.54,0.00,0.00
15min,AgWx,beryljct,423,19JAN2020:07:00:00,21.0,12.63,22.5,22.9,22.6,23.9,21.5,76,81,70,0.309,16.1,16.8,15.5,1.732,0.0,4.2,7.4,1.7,-0.00020,-0.00031,31.6,33.3,18,0,.,.,8.54,0.00,0.00
15min,AgWx,beryljct,423,19JAN2020:07:15:00,21.0,12.63,20.3,20.5,21.5,22.8,20.5,78,81,74,0.304,15.6,16.0,15.1,2.718,1.1,16,29,3.0,0.00004,0.00006,31.5,33.2,19,0,.,.,8.54,0.00,0.00
15min,AgWx,beryljct,423,19JAN2020:07:30:00,20.5,12.63,18.7,19.3,20.3,21.1,19.3,80,83,77,0.287,15.1,15.8,14.1,0.197,1.7,324,13,3.1,0.00005,0.00008,31.5,33.3,19,0,.,.,8.54,0.00,0.00
15min,AgWx,beryljct,423,19JAN2020:07:45:00,19.8,12.63,16.6,16.6,17.5,19.2,16.6,83,85,80,0.271,13.2,14.1,12.7,0.833,1.3,62,26,3.3,0.00004,0.00006,31.5,33.3,19,2,.,.,8.54,0.00,0.00
15min,AgWx,beryljct,423,19JAN2020:08:00:00,19.0,12.64,16.2,16.4,16.9,17.3,16.4,86,86,85,0.272,13.3,13.8,12.7,0,0.0,80,0.0,0.6,0.00003,0.00003,31.5,33.3,18,8,.,.,8.55,0.00,0.00
15min,AgWx,beryljct,423,19JAN2020:08:15:00,18.7,12.7,18.1,17.2,16.4,17.2,16.0,88,89,86,0.292,13.5,14.5,12.7,2.499,2.5,326,20,4.2,0.00013,0.00016,31.5,33.3,18,35,.,.,8.55,0.00,0.00
15min,AgWx,beryljct,423,19JAN2020:08:30:00,19.2,12.96,22.4,21.7,19.6,21.7,17.2,86,89,83,0.331,16.1,17.6,14.4,2.017,2.4,326,7.2,3.2,0.00025,0.00029,31.4,33.2,19,89,.,.,8.54,0.00,0.00
15min,AgWx,beryljct,423,19JAN2020:08:45:00,20.6,13.21,23.9,23.5,22.7,23.5,21.8,80,83,74,0.320,17.4,17.7,16.5,2.587,2.4,323,6.7,3.1,0.00033,0.00039,31.4,33.2,18,97,.,.,8.54,0.00,0.00
15min,AgWx,beryljct,423,19JAN2020:09:00:00,22.1,13.46,24.7,24.3,23.9,24.4,23.4,72,75,70,0.312,16.3,16.9,15.8,3.464,2.5,316,6.8,4.6,0.00043,0.00053,31.4,33.2,18,125,.,.,8.54,0.00,0.00
15min,AgWx,beryljct,423,19JAN2020:09:15:00,23.9,14.89,25.9,25.5,24.9,25.6,24.4,70,72,68,0.325,16.6,17.6,15.9,4.297,3.5,319,11,5.4,0.00059,0.00072,31.4,33.2,19,181,.,.,8.54,0.00,0.00
15min,AgWx,beryljct,423,19JAN2020:09:30:00,25.6,14.89,26.7,26.1,25.7,26.1,25.4,69,70,67,0.331,16.8,17.6,16.0,3.749,4.5,325,12,6.3,0.00066,0.00082,31.4,33.2,19,188,.,.,8.54,0.00,0.00
15min,AgWx,beryljct,423,19JAN2020:09:45:00,27.3,14.83,27.3,27.0,26.7,27.1,26.1,68,70,66,0.330,17.4,18.0,16.9,3.902,4.4,332,12,5.5,0.00081,0.00099,31.4,33.2,19,244,.,.,8.54,0.00,0.00
15min,AgWx,beryljct,423,19JAN2020:10:00:00,28.8,14.78,27.7,27.4,27.2,27.5,26.9,65,67,63,0.324,16.8,17.9,16.2,2.258,3.4,344,22,5.3,0.00087,0.00104,31.4,33.2,19,253,.,.,8.54,0.00,0.00
15min,AgWx,beryljct,423,19JAN2020:10:15:00,30.6,14.8,28.2,28.1,28.0,28.6,27.4,62,64,61,0.320,16.9,17.7,16.2,2.828,2.9,5.6,18,5.1,0.00113,0.00131,31.4,33.2,19,339,.,.,8.54,0.00,0.00
15min,AgWx,beryljct,423,19JAN2020:10:30:00,32.4,14.71,29.3,29.2,28.7,29.2,28.1,61,63,61,0.334,17.1,17.8,16.5,2.17,2.4,27,21,4.4,0.00131,0.00149,31.3,33.2,19,396,.,.,8.54,0.00,0.00
15min,AgWx,beryljct,423,19JAN2020:10:45:00,34.5,14.71,30.1,30.5,29.9,31.1,28.9,60,61,59,0.343,17.8,18.4,16.9,3.551,2.0,113,31,5.2,0.00144,0.00162,31.3,33.2,18,422,.,.,8.54,0.00,0.00
15min,AgWx,beryljct,423,19JAN2020:11:00:00,36.2,14.7,30.7,31.4,30.8,31.4,30.2,59,61,58,0.357,18.3,19.1,17.7,2.587,3.2,91,29,5.2,0.00164,0.00188,31.3,33.2,19,482,.,.,8.54,0.00,0.00
15min,AgWx,beryljct,423,19JAN2020:11:15:00,37.7,14.65,32.8,32.7,32.1,32.8,31.2,58,60,56,0.357,19.2,19.8,18.3,5.371,2.7,99,33,5.8,0.00178,0.00202,31.3,33.2,19,507,.,.,8.54,0.00,0.00
15min,AgWx,beryljct,423,19JAN2020:11:30:00,38.5,14.23,33.0,33.5,33.2,34.0,32.3,55,56,54,0.349,18.7,19.4,17.9,3.135,4.5,69,20,6.5,0.00166,0.00197,31.3,33.2,18,445,.,.,8.53,0.00,0.00
15min,AgWx,beryljct,423,19JAN2020:11:45:00,39.2,14.19,34.9,34.6,34.4,35.5,33.4,53,55,51,0.352,19.2,20.7,18.5,1.885,3.1,73,27,5.4,0.00197,0.00227,31.3,33.2,18,535,.,.,8.53,0.00,0.00
15min,AgWx,beryljct,423,19JAN2020:12:00:00,40.4,14.22,36.1,36.0,35.4,36.1,34.6,51,54,50,0.367,19.2,20.5,18.6,2.477,2.0,69,26,5.0,0.00187,0.00212,31.3,33.2,18,481,.,.,8.53,0.00,0.00
15min,AgWx,beryljct,423,19JAN2020:12:15:00,41.1,14.22,36.8,36.7,36.4,37.0,36.0,50,52,49,0.372,19.8,20.7,19.0,3.529,2.7,22,36,6.0,0.00188,0.00217,31.3,33.2,18,475,.,.,8.53,0.00,0.00
15min,AgWx,beryljct,423,19JAN2020:12:30:00,41.9,14.18,38.4,37.5,37.3,37.7,36.6,49,50,48,0.368,19.9,20.6,19.4,0.745,2.0,338,59,5.7,0.00207,0.00233,31.3,33.2,18,522,.,.,8.52,0.00,0.00
15min,AgWx,beryljct,423,19JAN2020:12:45:00,42.9,14.15,41.2,40.3,38.6,40.3,37.5,46,50,43,0.370,19.7,20.8,18.6,6.116,3.0,20,61,8.0,0.00218,0.00253,31.4,33.2,18,541,.,.,8.52,0.00,0.00
15min,AgWx,beryljct,423,19JAN2020:13:00:00,43.9,14.09,39.7,40.4,40.3,41.3,39.8,43,45,42,0.376,19.8,21.3,19.0,6.226,5.1,26,23,7.6,0.00209,0.00257,31.4,33.2,18,478,.,.,8.52,0.00,0.00
15min,AgWx,beryljct,423,19JAN2020:13:15:00,44.1,14.11,40.8,40.8,40.6,41.1,39.9,43,46,41,0.363,19.8,21.1,19.1,6.555,5.0,12,18,8.2,0.00188,0.00236,31.4,33.2,18,412,.,.,8.52,0.00,0.00
15min,AgWx,beryljct,423,19JAN2020:13:30:00,44.6,14.19,42.6,42.4,41.6,42.7,40.7,41,43,40,0.373,19.7,20.9,18.7,5.919,6.2,23,17,9.4,0.00247,0.00307,31.4,33.2,18,561,.,.,8.52,0.00,0.00
15min,AgWx,beryljct,423,19JAN2020:13:45:00,45.5,14.06,42.7,43.8,42.7,44.0,42.0,39,41,36,0.357,19.3,20.2,17.9,11.71,7.3,27,15,11.7,0.00245,0.00314,31.4,33.2,18,531,.,.,8.52,0.00,0.00
15min,AgWx,beryljct,423,19JAN2020:14:00:00,46.3,14.07,43.7,43.7,43.8,44.4,43.3,36,38,35,0.335,18.7,20.2,17.6,10.57,9.7,41,11,12.6,0.00256,0.00341,31.4,33.2,18,518,.,.,8.51,0.00,0.00
15min,AgWx,beryljct,423,19JAN2020:14:15:00,46.7,14.07,44.2,43.7,43.8,44.6,43.3,37,38,35,0.357,19.2,20.8,17.6,11.27,9.9,32,12,13.9,0.00230,0.00314,31.4,33.2,18,455,.,.,8.51,0.00,0.00
15min,AgWx,beryljct,423,19JAN2020:14:30:00,47.2,14.02,45.1,44.1,44.4,45.2,43.7,36,38,35,0.360,19.4,20.5,18.4,9.93,10.9,41,11,13.9,0.00262,0.00354,31.4,33.2,18,521,.,.,8.51,0.00,0.00
15min,AgWx,beryljct,423,19JAN2020:14:45:00,47.6,14.01,44.7,44.7,44.4,45.2,44.0,35,37,34,0.350,18.6,19.6,18.0,9.01,10.9,44,13,13.9,0.00246,0.00339,31.4,33.2,18,471,.,.,8.51,0.00,0.00
15min,AgWx,beryljct,423,19JAN2020:15:00:00,47.8,14.02,44.4,45.0,44.5,45.2,43.9,36,37,35,0.371,19.1,20.3,18.1,12.82,10.6,42,13,13.3,0.00222,0.00311,31.4,33.2,18,411,.,.,8.51,0.00,0.00
15min,AgWx,beryljct,423,19JAN2020:15:15:00,48.2,14.01,44.4,44.9,45.0,45.7,44.5,36,37,34,0.349,19.6,20.9,18.5,13.18,10.8,39,9.1,15.6,0.00234,0.00326,31.5,33.2,18,436,.,.,8.51,0.00,0.00
15min,AgWx,beryljct,423,19JAN2020:15:30:00,48.3,14.01,44.8,44.3,44.7,45.4,44.0,36,37,34,0.355,19.1,20.2,18.2,11.38,10.4,51,11,12.7,0.00187,0.00274,31.5,33.2,18,318,.,.,8.51,0.00,0.00
15min,AgWx,beryljct,423,19JAN2020:15:45:00,47.7,14.02,44.3,43.9,44.1,44.5,43.8,37,38,36,0.357,19.2,19.9,18.7,9.47,10.4,56,9.4,15.2,0.00158,0.00241,31.5,33.2,18,250,.,.,8.51,0.00,0.00
15min,AgWx,beryljct,423,19JAN2020:16:00:00,46.9,14.05,43.2,43.1,43.5,44.1,43.1,37,38,36,0.355,18.9,19.3,18.5,8.07,11.0,56,9.7,13.9,0.00136,0.00219,31.5,33.2,18,188,.,.,8.51,0.00,0.00
15min,AgWx,beryljct,423,19JAN2020:16:15:00,45.8,14.09,42.5,42.5,42.9,43.1,42.5,38,39,37,0.362,19.0,19.4,18.6,8.77,9.3,58,9.0,12.2,0.00111,0.00182,31.5,33.2,18,158,.,.,8.51,0.00,0.00
15min,AgWx,beryljct,423,19JAN2020:16:30:00,44.6,13.49,41.6,41.3,41.9,42.5,41.3,40,42,39,0.365,19.4,19.8,19.1,6.84,8.0,63,8.1,11.7,0.00075,0.00134,31.5,33.2,18,99,.,.,8.51,0.00,0.00
15min,AgWx,beryljct,423,19JAN2020:16:45:00,43.2,13.4,41.0,40.8,41.0,41.3,40.8,42,42,41,0.364,19.4,19.6,19.2,5.174,5.5,68,9.4,9.3,0.00047,0.00090,31.5,33.2,18,86,.,.,8.51,0.00,0.00
15min,AgWx,beryljct,423,19JAN2020:17:00:00,42.0,13.25,40.4,39.8,40.3,40.8,39.8,44,45,42,0.371,19.8,20.1,19.5,6.007,5.4,64,8.5,7.6,0.00027,0.00035,31.5,33.2,18,66,.,.,8.51,0.00,0.00
15min,AgWx,beryljct,423,19JAN2020:17:15:00,40.9,13.16,39.0,39.1,39.5,40.0,39.1,45,46,44,0.373,20.1,20.3,19.8,5.985,5.7,58,9.3,7.7,0.00022,0.00029,31.5,33.2,18,34,.,.,8.51,0.00,0.00
15min,AgWx,beryljct,423,19JAN2020:17:30:00,40.1,13.12,38.9,38.6,38.8,39.2,38.6,46,47,46,0.368,20.0,20.3,19.7,8.75,7.8,60,7.7,10.7,0.00026,0.00032,31.5,33.1,18,20,.,.,8.51,0.00,0.00
15min,AgWx,beryljct,423,19JAN2020:17:45:00,39.4,13.07,37.5,37.6,38.1,38.6,37.6,47,48,46,0.365,19.7,19.9,19.6,4.932,7.1,70,7.0,9.5,0.00021,0.00028,31.5,33.2,18,5,.,.,8.51,0.00,0.00
15min,AgWx,beryljct,423,19JAN2020:18:00:00,38.6,13.06,36.8,36.8,37.4,37.7,36.8,48,49,47,0.360,19.4,19.7,19.2,3.595,5.2,78,8.1,7.3,0.00013,0.00019,31.5,33.2,18,1,.,.,8.51,0.00,0.00
15min,AgWx,beryljct,423,19JAN2020:18:15:00,37.7,13.04,35.6,36.1,36.5,36.8,36.1,49,50,48,0.359,19.2,19.3,19.1,3.113,3.8,88,7.4,5.1,0.00006,0.00010,31.6,33.2,18,0,.,.,8.52,0.00,0.00
15min,AgWx,beryljct,423,19JAN2020:18:30:00,36.9,13.02,35.7,35.8,35.9,36.1,35.7,50,51,50,0.359,19.2,19.3,19.1,4.209,4.5,72,8.2,6.6,0.00009,0.00013,31.6,33.2,18,0,.,.,8.52,0.00,0.00
15min,AgWx,beryljct,423,19JAN2020:18:45:00,36.3,13,36.2,35.8,35.9,36.1,35.7,50,51,49,0.358,19.1,19.3,18.9,8.09,6.0,75,9.2,8.4,0.00014,0.00019,31.6,33.2,19,0,.,.,8.52,0.00,0.00
15min,AgWx,beryljct,423,19JAN2020:19:00:00,36.1,12.99,35.5,35.6,35.8,36.0,35.6,50,50,49,0.356,19.0,19.2,18.8,8.05,7.7,71,7.0,10.1,0.00019,0.00024,31.6,33.2,18,0,.,.,8.52,0.00,0.00
15min,AgWx,beryljct,423,19JAN2020:19:15:00,35.8,12.99,35.0,34.8,35.1,35.6,34.7,52,53,51,0.358,19.1,19.3,19.0,6.862,7.0,70,6.6,9.1,0.00016,0.00021,31.6,33.2,19,0,.,.,8.52,0.00,0.00
15min,AgWx,beryljct,423,19JAN2020:19:30:00,35.4,12.97,34.7,34.3,34.6,34.9,34.2,53,54,52,0.356,19.0,19.1,18.8,6.182,6.2,79,6.9,9.1,0.00013,0.00018,31.6,33.2,19,0,.,.,8.52,0.00,0.00
15min,AgWx,beryljct,423,19JAN2020:19:45:00,34.9,12.97,34.5,33.9,34.1,34.3,33.8,54,54,53,0.355,19.0,19.1,18.8,7.848,6.4,77,7.3,9.2,0.00013,0.00017,31.6,33.2,18,0,.,.,8.52,0.00,0.00
15min,AgWx,beryljct,423,19JAN2020:20:00:00,34.4,12.96,33.6,33.0,33.5,34.0,33.0,55,56,54,0.354,18.9,19.1,18.8,5.371,6.5,68,6.8,8.9,0.00013,0.00017,31.6,33.1,18,0,.,.,8.52,0.01,0.00
15min,AgWx,beryljct,423,19JAN2020:20:15:00,33.7,12.95,33.2,32.9,33.1,33.4,32.8,55,56,55,0.355,18.9,19.1,18.7,3.398,4.4,72,9.5,6.9,0.00005,0.00009,31.6,33.2,18,0,.,.,8.52,0.00,0.00
15min,AgWx,beryljct,423,19JAN2020:20:30:00,33.2,12.94,33.0,32.5,32.8,33.0,32.5,56,57,56,0.356,19.0,19.1,18.9,5.678,4.9,64,7.4,8.1,0.00007,0.00010,31.6,33.2,19,0,.,.,8.52,0.00,0.00
15min,AgWx,beryljct,423,19JAN2020:20:45:00,32.6,12.94,31.5,31.6,32.1,32.7,31.6,58,60,57,0.361,19.1,19.4,18.8,3.727,4.4,38,13,6.4,0.00004,0.00007,31.6,33.2,19,0,.,.,8.52,0.00,0.00
15min,AgWx,beryljct,423,19JAN2020:21:00:00,32.1,12.93,31.7,31.5,31.6,31.9,31.4,60,60,59,0.358,19.2,19.5,19.1,3.749,4.2,39,14,7.5,0.00003,0.00006,31.6,33.2,19,0,.,.,8.52,0.00,0.00
15min,AgWx,beryljct,423,19JAN2020:21:15:00,31.7,12.92,31.7,31.9,31.9,32.2,31.4,59,60,58,0.353,19.0,19.4,18.7,2.411,2.9,54,11,5.6,-0.00002,-0.00001,31.6,33.2,19,0,.,.,8.53,0.00,0.00
15min,AgWx,beryljct,423,19JAN2020:21:30:00,31.4,12.91,30.9,30.5,31.4,32.1,30.5,60,62,58,0.355,19.1,19.5,18.8,2.696,2.2,12,33,5.1,-0.00006,-0.00006,31.6,33.2,18,0,.,.,8.52,0.00,0.00
15min,AgWx,beryljct,423,19JAN2020:21:45:00,31.2,12.9,31.5,31.1,30.7,31.1,30.2,63,65,62,0.369,19.5,20.0,18.9,2.411,3.3,320,5.5,4.2,-0.00002,-0.00000,31.6,33.2,18,0,.,.,8.53,0.00,0.00
15min,AgWx,beryljct,423,19JAN2020:22:00:00,31.3,12.89,32.0,31.7,31.5,31.8,30.8,61,63,60,0.365,19.7,20.0,19.5,2.083,2.0,353,17,3.2,-0.00008,-0.00009,31.6,33.2,18,0,.,.,8.53,0.00,0.00
15min,AgWx,beryljct,423,19JAN2020:22:15:00,31.6,12.89,31.3,31.8,31.6,31.8,31.3,61,63,60,0.367,19.7,20.1,19.6,2.324,2.3,318,23,3.7,-0.00006,-0.00006,31.7,33.2,18,0,.,.,8.52,0.00,0.00
15min,AgWx,beryljct,423,19JAN2020:22:30:00,31.8,12.88,32.4,31.9,31.9,32.2,31.6,60,61,59,0.364,19.5,19.7,19.4,1.578,1.9,18,22,3.4,-0.00008,-0.00009,31.7,33.2,18,0,.,.,8.52,0.00,0.00
15min,AgWx,beryljct,423,19JAN2020:22:45:00,32.0,12.86,32.1,31.8,32.0,32.2,31.6,60,61,59,0.367,19.6,19.9,19.5,3.617,2.3,16,10,3.7,-0.00006,-0.00006,31.7,33.2,19,0,.,.,8.53,0.00,0.00
15min,AgWx,beryljct,423,19JAN2020:23:00:00,32.1,12.86,30.6,30.7,30.8,31.9,30.4,65,67,61,0.375,20.4,20.8,19.7,2.631,2.7,348,21,3.6,-0.00005,-0.00005,31.7,33.2,18,0,.,.,8.53,0.00,0.00
15min,AgWx,beryljct,423,19JAN2020:23:15:00,32.0,12.86,29.1,28.9,29.8,30.7,28.9,68,70,65,0.379,20.4,20.9,20.1,3.683,3.4,359,24,4.6,-0.00003,-0.00002,31.7,33.2,18,0,.,.,8.53,0.00,0.00
15min,AgWx,beryljct,423,19JAN2020:23:30:00,31.7,12.84,29.8,29.3,29.2,29.4,28.9,68,70,67,0.369,20.1,20.5,19.7,4.121,3.8,316,23,5.5,-0.00002,-0.00000,31.7,33.2,18,0,.,.,8.53,0.00,0.00
15min,AgWx,bigpiney,439,19JAN2020:00:00:00,6.2,12.54,2.0,1.5,3.2,3.6,1.5,83,83,81,0.132,-0.8,-0.3,-2.9,4.428,2.5,57,21,6.7,-0.00004,-0.00005,28.4,30.1,10,0,0,0.0,5.71,0.00,0.00
15min,AgWx,bigpiney,439,19JAN2020:00:15:00,6.4,12.52,2.7,1.6,1.2,1.6,0.8,83,84,81,0.137,-2.7,-2.1,-3.1,0,2.1,43,13,3.9,-0.00004,-0.00005,28.4,30.1,10,0,0,0.0,5.71,0.00,0.00
15min,AgWx,bigpiney,439,19JAN2020:00:30:00,6.5,12.51,3.6,2.9,2.3,2.9,1.6,84,84,84,0.145,-1.4,-0.9,-2.1,2.061,1.5,233,25,3.2,-0.00006,-0.00008,28.4,30.1,10,0,0,0.0,5.71,0.00,0.00
15min,AgWx,bigpiney,439,19JAN2020:00:45:00,6.5,12.5,4.5,3.8,3.5,3.9,2.9,84,84,84,0.152,-0.3,0.2,-0.9,0.044,1.2,299,57,3.4,-0.00007,-0.00009,28.4,30.1,10,0,0,0.0,5.71,0.00,0.00
15min,AgWx,bigpiney,439,19JAN2020:01:00:00,6.7,12.49,4.5,4.1,4.0,4.2,3.8,84,84,83,0.153,0.1,0.3,-0.1,2.631,0.8,50,2.8,3.8,-0.00008,-0.00012,28.4,30.1,10,0,0,0.0,5.71,0.00,0.00
15min,AgWx,bigpiney,439,19JAN2020:01:15:00,6.9,12.48,5.5,4.8,4.3,4.9,4.0,83,83,82,0.155,0.2,0.7,-0.0,1.6,1.0,338,35,2.1,-0.00008,-0.00010,28.4,30.1,10,0,0,0.0,5.71,0.00,0.00
15min,AgWx,bigpiney,439,19JAN2020:01:30:00,7.1,12.47,6.7,6.0,5.4,6.0,4.8,82,82,82,0.165,1.1,1.8,0.4,2.214,1.0,257,43,3.0,-0.00008,-0.00010,28.4,30.0,10,0,0,0.0,5.71,0.00,0.00
15min,AgWx,bigpiney,439,19JAN2020:01:45:00,7.5,12.46,8.0,7.2,6.6,7.2,6.0,83,83,82,0.174,2.4,3.0,1.8,1.491,1.8,244,15,2.7,-0.00006,-0.00008,28.4,30.0,10,0,0,0.0,5.71,0.00,0.00
15min,AgWx,bigpiney,439,19JAN2020:02:00:00,8.0,12.45,8.6,8.2,7.7,8.2,7.2,82,83,82,0.182,3.5,4.0,3.0,1.206,1.8,189,13,3.3,-0.00006,-0.00008,28.4,30.0,10,0,0,0.0,5.71,0.00,0.00
15min,AgWx,bigpiney,439,19JAN2020:02:15:00,8.5,12.44,9.1,8.4,8.3,8.5,8.1,82,83,82,0.185,3.9,4.2,3.7,3.617,1.4,175,14,4.0,-0.00008,-0.00010,28.4,30.1,10,0,0,0.0,5.71,0.00,0.00
15min,AgWx,bigpiney,439,19JAN2020:02:30:00,8.9,12.44,6.8,6.5,7.6,8.5,6.5,83,83,82,0.169,3.4,4.3,2.3,2.433,3.3,219,14,4.9,-0.00004,-0.00004,28.4,30.1,10,0,0,0.0,5.71,0.00,0.00
15min,AgWx,bigpiney,439,19JAN2020:02:45:00,8.8,12.43,8.2,7.5,6.5,7.5,5.8,83,85,82,0.179,2.5,3.8,1.6,1.293,3.3,249,9.7,5.3,-0.00004,-0.00004,28.4,30.0,10,0,0,0.0,5.71,0.00,0.00
15min,AgWx,bigpiney,439,19JAN2020:03:00:00,8.4,12.42,6.7,6.7,6.9,7.5,5.8,83,85,81,0.173,2.9,3.7,1.2,0.855,0.3,262,9.9,2.2,-0.00011,-0.00016,28.4,30.0,10,0,0,0.0,5.71,0.00,0.00
15min,AgWx,bigpiney,439,19JAN2020:03:15:00,7.8,12.42,4.3,4.2,5.3,6.8,4.2,85,86,83,0.157,1.7,3.1,0.7,1.71,1.7,296,31,2.8,-0.00006,-0.00008,28.4,30.0,10,0,0,0.0,5.71,0.00,0.00
15min,AgWx,bigpiney,439,19JAN2020:03:30:00,6.9,12.41,5.3,4.4,4.0,4.4,3.6,87,88,85,0.163,0.9,1.6,0.4,3.486,2.2,279,12,3.6,-0.00005,-0.00006,28.3,30.1,10,0,0,0.0,5.71,0.00,0.00
15min,AgWx,bigpiney,439,19JAN2020:03:45:00,6.0,12.4,3.6,1.3,4.0,5.8,0.9,86,88,82,0.138,0.6,2.6,-3.2,4.253,5.0,267,8.6,6.5,-0.00002,-0.00002,28.3,30.1,10,0,0,0.0,5.71,0.00,0.00
15min,AgWx,bigpiney,439,19JAN2020:04:00:00,5.1,12.4,5.3,4.5,1.7,4.6,-0.7,88,91,83,0.166,-1.2,2.5,-4.5,1.907,2.0,247,26,4.6,-0.00005,-0.00006,28.4,30.0,10,0,0,0.0,5.71,0.00,0.00
15min,AgWx,bigpiney,439,19JAN2020:04:15:00,4.3,12.4,4.1,4.4,5.0,6.3,4.4,88,89,86,0.161,2.1,3.8,1.3,0.219,1.7,103,73,4.1,-0.00006,-0.00008,28.4,30.1,10,0,0,0.0,5.71,0.00,0.00
15min,AgWx,bigpiney,439,19JAN2020:04:30:00,3.9,12.39,7.0,6.4,5.1,6.4,4.0,88,89,87,0.179,2.3,3.6,0.9,1.995,1.7,136,39,2.7,-0.00007,-0.00008,28.4,30.0,10,0,0,0.0,5.71,0.00,0.00
15min,AgWx,bigpiney,439,19JAN2020:04:45:00,3.7,12.38,7.7,6.9,5.4,6.9,3.8,88,91,85,0.188,2.5,4.6,0.2,0.965,2.6,197,27,4.3,-0.00005,-0.00006,28.4,30.1,10,0,0,0.0,5.71,0.00,0.00
15min,AgWx,bigpiney,439,19JAN2020:05:00:00,3.4,12.38,2.2,2.4,3.2,7.1,1.6,87,90,84,0.149,0.1,4.6,-1.8,3.113,1.5,324,23,4.5,-0.00006,-0.00008,28.4,30.0,10,0,0,0.0,5.71,0.00,0.00
15min,AgWx,bigpiney,439,19JAN2020:05:15:00,3.0,12.38,2.3,0.8,2.1,2.8,0.8,88,89,86,0.136,-0.8,0.2,-2.3,1.82,1.6,302,15,3.2,-0.00006,-0.00007,28.4,30.0,10,0,0,0.0,5.71,0.00,0.00
15min,AgWx,bigpiney,439,19JAN2020:05:30:00,2.5,12.37,1.4,-0.2,1.2,2.7,-1.4,87,89,82,0.130,-1.8,0.1,-5.6,2.389,2.0,310,34,2.6,-0.00005,-0.00006,28.4,30.0,10,0,0,0.0,5.71,0.00,0.00
15min,AgWx,bigpiney,439,19JAN2020:05:45:00,1.9,12.36,-1.1,-1.3,0.5,1.2,-1.3,87,89,86,0.122,-2.4,-1.5,-4.6,2.455,2.1,354,18,2.9,-0.00005,-0.00006,28.3,30.1,10,0,0,0.0,5.71,0.00,0.00
15min,AgWx,bigpiney,439,19JAN2020:06:00:00,1.4,12.36,1.7,0.8,-0.8,0.8,-1.7,87,89,85,0.139,-3.7,-1.8,-5.0,2.083,2.8,292,12,3.6,-0.00004,-0.00004,28.3,30.0,10,0,0,0.0,5.71,0.00,0.00
15min,AgWx,bigpiney,439,19JAN2020:06:15:00,1.0,12.35,3.0,2.1,1.4,2.1,0.4,88,89,87,0.148,-1.4,-0.6,-2.6,2.696,2.5,289,7.6,3.2,-0.00004,-0.00005,28.3,30.1,10,0,0,0.0,5.71,0.00,0.00
15min,AgWx,bigpiney,439,19JAN2020:06:30:00,0.7,12.35,2.4,2.7,2.9,3.7,2.1,88,89,87,0.148,0.2,1.0,-0.6,4.143,3.3,281,5.2,4.2,-0.00004,-0.00004,28.3,30.0,10,0,0,0.0,5.71,0.00,0.00
15min,AgWx,bigpiney,439,19JAN2020:06:45:00,0.4,12.36,1.6,-0.1,1.9,3.3,-0.3,86,88,83,0.126,-1.3,0.6,-4.3,4.538,4.0,269,11,5.0,-0.00003,-0.00003,28.3,30.0,10,0,0,0.0,5.71,0.00,0.00
15min,AgWx,bigpiney,439,19JAN2020:07:00:00,-0.1,12.34,-1.8,-3.0,0.5,2.7,-3.0,86,91,81,0.107,-2.8,0.6,-7.4,5.064,4.5,252,7.4,5.9,-0.00002,-0.00002,28.3,30.0,10,0,0,0.0,5.71,0.00,0.00
15min,AgWx,bigpiney,439,19JAN2020:07:15:00,-0.7,12.35,-1.6,-4.1,1.1,6.4,-4.2,87,93,81,0.101,-2.0,4.7,-8.7,4.121,4.3,262,15,5.1,-0.00003,-0.00003,28.3,30.0,10,0,0,0.0,5.71,0.00,0.00
15min,AgWx,bigpiney,439,19JAN2020:07:30:00,-1.1,12.34,-3.8,-2.8,-1.9,3.0,-4.3,85,91,81,0.114,-5.2,1.0,-8.4,4.143,4.0,233,14,6.1,-0.00002,-0.00002,28.3,30.1,10,0,0,0.0,5.71,0.00,0.00
15min,AgWx,bigpiney,439,19JAN2020:07:45:00,-1.5,12.38,-1.3,-4.7,-4.3,-2.9,-5.8,84,87,82,0.102,-7.9,-6.0,-9.7,1.447,3.5,225,6.8,6.0,-0.00002,-0.00002,28.3,30.0,10,3,0,0.0,5.71,0.00,0.00
15min,AgWx,bigpiney,439,19JAN2020:08:00:00,-1.8,12.56,-1.7,-2.9,-3.6,-2.0,-4.7,86,88,84,0.114,-6.9,-4.8,-8.3,1.14,0.9,152,73,1.7,-0.00010,-0.00010,28.3,30.0,10,10,0,0.0,5.71,0.00,0.00
15min,AgWx,bigpiney,439,19JAN2020:08:15:00,-2.0,14.29,2.3,1.2,-0.9,1.8,-2.8,87,89,86,0.140,-3.7,-0.7,-6.0,1.578,1.1,180,25,1.6,-0.00007,-0.00007,28.3,30.1,10,21,0,0.0,5.71,0.00,0.00
15min,AgWx,bigpiney,439,19JAN2020:08:30:00,-2.0,14.99,0.7,1.5,0.3,2.1,-3.1,86,90,82,0.143,-2.9,-0.6,-7.3,2.433,2.3,216,13,4.0,-0.00003,-0.00002,28.3,30.1,10,61,0,0.0,5.71,0.00,0.00